Location: Binningen
(47.7924°N, 8.7261°E)
Time: 07:36:15
(UTC+00:00)

Meteor 1-13 Rocket - Pass Details

Date: 17 May 2021
Orbit: 830 x 912 km, 81.3° (Epoch: 20 June)

Event Time Altitude Azimuth Distance (km) Brightness Sun altitude
Exits shadow 22:16:12 41° 138° (SE) 1,200 4.5 -21.1°
Maximum altitude 22:17:37 51° 94° (E) 1,045 4.5 -21.2°
Drops below altitude 10° 22:22:56 10° 21° (NNE) 2,448 7.4 -21.4°
Sets 22:25:24 0° 16° (NNE) 3,388 8.3 -21.5°
